User: anonymous   Login
Location: Unspecified
(0.0000°N, 0.0000°E)
Time: 18:58:01
(UTC+00:00)
Language:

Nadezhda 6 - Orbit

View from above orbital plane
View from above orbital plane
View from above satellite
View from above satellite

Ground track
Ground track

The orbit data is extracted from the following two-line orbital elements,

1 26384U 00033A   17084.85246295 +.00000079 +00000-0 +23021-4 0  9998
2 26384 098.0238 152.5913 0013925 296.6570 063.3171 14.66319773894599
Epoch (UTC): 25 March 2017 20:27:32
Eccentricity: 0.0013925
inclination: 98.0238°
perigee height: 663 km
apogee height: 682 km
right ascension of ascending node: 152.5913°
argument of perigee: 296.6570°
revolutions per day: 14.66319773
mean anomaly at epoch: 63.3171°
orbit number at epoch: 89459

The dashed part of the orbit path shows where the satellite is in the earth's shadow,  

DLR